Weather History for KAMW - August, 2012

Change the Weather History Date:

Monday, August 13, 2012

  Actual Average Record
Temperature  
Mean Temperature 68 °F 72 °F  
Max Temperature 79 °F 82 °F 90 °F (2007)
Min Temperature 57 °F 61 °F 45 °F (2004)
Degree Days  
Heating Degree Days 0 0  
Month to date heating degree days 1 0  
Since 1 June heating degree days 10 28  
Since 1 July heating degree days 1 4  
Cooling Degree Days 3 7  
Month to date cooling degree days 88 98  
Year to date cooling degree days 899 584  
Since 1 June cooling degree days 766 535  
Growing Degree Days 19 (Base 50)    
Moisture  
Dew Point 59 °F    
Average Humidity 72    
Maximum Humidity 100    
Minimum Humidity 43    
Precipitation  
Precipitation 0.02 in 0.15 in 1.09 in (1987)
Month to date precipitation 1.91  
Sea Level Pressure  
Sea Level Pressure 30.01 in    
Wind  
Wind Speed 8 mph (North)    
Max Wind Speed 18 mph    
Max Gust Speed 22 mph    
Visibility 9 miles    
Events Rain    
T = Trace of Precipitation, MM = Missing Value Source: NWS Daily Summary

Daily Weather History Graph

Daily Weather History Graph

Search for Another Location

Airport or City:

Trip Planner

Search our weather history database for the weather conditions in past years. The results will help you decide how hot, cold, wet, or windy it might be!

Date:

Astronomy

Aug. 13, 2012 Rise Set
Actual Time 6:20 AM CDT 8:16 PM CDT
Civil Twilight 5:50 AM CDT 8:47 PM CDT
Nautical Twilight 5:13 AM CDT 9:23 PM CDT
Astronomical Twilight 4:33 AM CDT 10:03 PM CDT
Moon 2:22 AM CDT (8/13) 5:30 PM CDT (8/13)
Length of Visible Light 14h 56m
Length of Day
13h 56m
Waning Crescent, 16% of the Moon is Illuminated
Aug 13
Waning Crescent
Aug 17
New
Aug 24
First Quarter
Aug 31
Full
Sep 8
Last Quarter

Hourly Weather History & Observations

Time (CDT) Temp. Dew Point Humidity Pressure Visibility Wind Dir Wind Speed Gust Speed Precip Events Conditions
12:32 AM 62.6 °F 60.8 °F 94% 29.97 in 8.0 mi NNE 5.8 mph - 0.01 in   Overcast
12:53 AM 62.1 °F 59.0 °F 90% 29.96 in 9.0 mi NNE 8.1 mph - 0.01 in   Overcast
1:53 AM 61.0 °F 59.0 °F 93% 29.96 in 9.0 mi NNE 8.1 mph - N/A   Overcast
2:53 AM 60.1 °F 59.0 °F 96% 29.96 in 9.0 mi NNE 9.2 mph - N/A   Overcast
3:23 AM 60.8 °F 59.0 °F 94% 29.98 in 2.0 mi North 9.2 mph - 0.00 in Rain Light Rain
3:51 AM 60.8 °F 60.8 °F 100% 29.99 in 3.0 mi North 9.2 mph - 0.01 in   Overcast
3:53 AM 60.1 °F 60.1 °F 100% 29.98 in 3.0 mi North 8.1 mph - 0.01 in   Overcast
4:53 AM 61.0 °F 61.0 °F 100% 29.98 in 8.0 mi North 10.4 mph - N/A   Overcast
5:09 AM 60.8 °F 60.8 °F 100% 29.99 in 5.0 mi North 8.1 mph - N/A   Overcast
5:19 AM 60.8 °F 60.8 °F 100% 30.00 in 7.0 mi North 9.2 mph - N/A   Overcast
5:53 AM 61.0 °F 60.1 °F 97% 30.00 in 9.0 mi North 9.2 mph - N/A   Overcast
6:53 AM 61.0 °F 59.0 °F 93% 30.02 in 10.0 mi North 11.5 mph - N/A   Overcast
7:53 AM 61.0 °F 59.0 °F 93% 30.04 in 10.0 mi North 10.4 mph - N/A   Overcast
8:05 AM 62.6 °F 59.0 °F 88% 30.05 in 10.0 mi North 10.4 mph - N/A   Overcast
8:53 AM 63.0 °F 59.0 °F 87% 30.04 in 10.0 mi North 10.4 mph - N/A   Overcast
9:13 AM 64.4 °F 59.0 °F 83% 30.06 in 10.0 mi North 15.0 mph - N/A   Overcast
9:53 AM 64.9 °F 57.9 °F 78% 30.04 in 10.0 mi North 13.8 mph - N/A   Mostly Cloudy
10:19 AM 68.0 °F 59.0 °F 73% 30.06 in 10.0 mi North 11.5 mph - N/A   Scattered Clouds
10:53 AM 68.0 °F 57.9 °F 70% 30.05 in 10.0 mi North 15.0 mph 20.7 mph N/A   Mostly Cloudy
11:21 AM 69.8 °F 59.0 °F 68% 30.06 in 10.0 mi North 12.7 mph - N/A   Mostly Cloudy
11:46 AM 71.6 °F 60.8 °F 69% 30.06 in 10.0 mi NNE 12.7 mph - N/A   Mostly Cloudy
11:53 AM 70.0 °F 59.0 °F 68% 30.04 in 10.0 mi North 16.1 mph - N/A   Mostly Cloudy
12:53 PM 71.1 °F 59.0 °F 66% 30.04 in 10.0 mi North 15.0 mph - N/A   Scattered Clouds
1:53 PM 75.0 °F 57.9 °F 55% 30.03 in 10.0 mi North 10.4 mph - N/A   Mostly Cloudy
2:53 PM 78.1 °F 57.0 °F 48% 30.01 in 10.0 mi North 8.1 mph - N/A   Mostly Cloudy
3:53 PM 77.0 °F 55.9 °F 48% 30.01 in 10.0 mi North 11.5 mph 18.4 mph N/A   Mostly Cloudy
4:53 PM 78.1 °F 57.9 °F 50% 30.00 in 10.0 mi NNW 10.4 mph - N/A   Partly Cloudy
5:53 PM 77.0 °F 54.0 °F 45% 29.99 in 10.0 mi North 9.2 mph - N/A   Clear
6:53 PM 75.9 °F 55.0 °F 48% 29.99 in 10.0 mi NW 5.8 mph - N/A   Clear
7:53 PM 70.0 °F 57.9 °F 65% 29.99 in 10.0 mi West 3.5 mph - N/A   Clear
8:53 PM 63.0 °F 59.0 °F 87% 29.99 in 10.0 mi WSW 3.5 mph - N/A   Clear
9:53 PM 61.0 °F 57.9 °F 90% 30.01 in 10.0 mi Calm Calm - N/A   Clear
10:53 PM 61.0 °F 57.0 °F 87% 30.01 in 10.0 mi Calm Calm - N/A   Clear
11:53 PM 59.0 °F 55.9 °F 90% 30.00 in 10.0 mi Calm Calm - N/A   Clear